Content
SEND FEEDBACK

Daily
Averages
Monthly
Summary
United States of America

PARSONSBURG, MARYLAND


Home > North America > United States > Maryland
Elevation: 44 feet     Latitude: 38 20N     Longitude: 075 31W

WEATHER
 
SELECT A DAY
Number of Records: 204,535;   Date Range: 1/1/95 - 8/12/14
 
SHARE

PRINT THIS DATA

[ ← Previous Day ]
WEATHER ALMANAC - JANUARY 3, 2013
[ Next Day → ]
[ °C ]   °F
Weather ElementAverageHighLow
Temperature31.3 °F37 °F (12:54 pm)26.1 °F (9:54 pm)
Dewpoint17 °F21 °F (10:54 pm)14 °F (11:54 am)
Humidity56.8 %78 % (10:54 pm)39 % (12:54 pm)
Barometer30.22 in30.27 in (9:54 am)30.18 in (1:54 pm)
Wind Speed2.9 mph6.9 mph (11:54 am)
Weather ElementAverage
Visibility10 mi
Wind DirectionS (180 °)

Weather ElementTotal
Precipitation---
Heating Degree Days33.5 (Base 65)
Averaged from 23 records on January 3, 2013
WEATHER CONDITIONS BREAKOUT
WIND DIRECTION BREAKOUT
WEATHER BY HOUR - JANUARY 3, 2013
[ °C ]   °F
Local TimeTemperatureDewpointHumidityBarometerVisibilityWind DirectionWind SpeedGust SpeedPrecipitationEventsConditions
1:54 AM30.9 °F15.1 °F52 %30.23 in10.0 miCalmClear
2:54 AM30.0 °F17.1 °F59 %30.25 in10.0 miNorth (360°)3.5 mphClear
3:54 AM30.9 °F15.1 °F52 %30.23 in10.0 miNorth (350°)3.5 mphClear
4:54 AM30.0 °F15.1 °F54 %30.22 in10.0 miNNW (340°)3.5 mphClear
5:54 AM28.9 °F15.1 °F56 %30.22 in10.0 miCalmClear
6:54 AM28.0 °F16.0 °F61 %30.24 in10.0 miCalmClear
7:54 AM28.9 °F17.1 °F61 %30.26 in10.0 miCalmClear
8:54 AM30.9 °F17.1 °F57 %30.26 in10.0 miNNW (330°)4.6 mphPartly Cloudy
9:54 AM32.0 °F17.1 °F54 %30.27 in10.0 miNW (320°)3.5 mphClear
10:54 AM33.1 °F16.0 °F50 %30.26 in10.0 miNW (310°)5.8 mphClear
11:54 AM35.1 °F14.0 °F42 %30.23 in10.0 miNW (310°)6.9 mphClear
12:54 PM37.0 °F14.0 °F39 %30.20 in10.0 miWNW (300°)5.8 mphClear
1:54 PM37.0 °F14.0 °F39 %30.18 in10.0 miWNW (300°)5.8 mphClear
2:54 PM37.0 °F16.0 °F42 %30.18 in10.0 miWest (270°)5.8 mphClear
3:54 PM37.0 °F17.1 °F44 %30.18 in10.0 miCalmClear
4:54 PM35.1 °F18.0 °F50 %30.20 in10.0 miWest (280°)5.8 mphClear
5:54 PM30.9 °F19.0 °F61 %30.20 in10.0 miSW (220°)3.5 mphClear
6:54 PM32.0 °F19.9 °F61 %30.22 in10.0 miWSW (250°)3.5 mphClear
7:54 PM28.0 °F19.9 °F72 %30.21 in10.0 miSSW (200°)4.6 mphClear
8:54 PM27.0 °F19.0 °F72 %30.21 in10.0 miCalmClear
9:54 PM26.1 °F19.0 °F75 %30.21 in10.0 miCalmClear
10:54 PM27.0 °F21.0 °F78 %30.21 in10.0 miCalmClear
11:54 PM26.1 °F19.0 °F75 %30.20 in10.0 miCalmClear
Hourly data recorded from KSBY, located miles away from Parsonsburg, Maryland







STORIES FROM OUR PARTNERS